CW6335 Weather Reports


time (UTC)temp
C
wind
direction
speed
KPH
gust
KPH
rain 1hr
cm
rain 24hr
cm
rain mn
cm
humidity
%
barometer
mb
20260506164336 20 65 0.0 0.0 0.00 0.00 0.00 61 1018.2
20260506163349 18 254 0.0 0.0 0.00 0.00 0.00 65 1018.2
20260506162345 18 348 0.0 0.0 0.00 0.00 0.00 69 1018.2
20260506161358 17 267 0.0 0.0 0.00 0.00 0.00 72 1018.3
20260506160353 16 275 0.0 0.0 0.00 0.00 0.00 79 1018.4
20260506155345 15 271 0.0 0.0 0.00 0.00 0.00 82 1018.4
20260506154337 15 273 0.0 0.0 0.00 0.00 0.00 90 1018.7
20260506153351 13 314 0.0 0.0 0.00 0.00 0.00 94 1018.7
20260506152344 13 208 0.0 0.0 0.00 0.00 0.00 97 1018.7
20260506151356 12 207 0.0 0.0 0.00 0.00 0.00 97 1018.8
20260506150349 11 207 0.0 0.0 0.00 0.00 0.00 97 1018.8
20260506145343 10 207 0.0 0.0 0.00 0.00 0.00 97 1018.8
20260506143350 8 195 0.0 0.0 0.00 0.00 0.00 97 1018.7
20260506142343 8 195 0.0 0.0 0.00 0.00 0.00 97 1018.7
20260506141354 7 195 0.0 0.0 0.00 0.00 0.00 97 1018.6
20260506140351 6 195 0.0 0.0 0.00 0.00 0.00 96 1018.5
20260506135344 6 195 0.0 0.0 0.00 0.00 0.00 96 1018.5
20260506134338 5 195 0.0 0.0 0.00 0.00 0.00 95 1018.6
20260506133351 5 195 0.0 0.0 0.00 0.00 0.00 95 1018.4
20260506132340 5 195 0.0 0.0 0.00 0.00 0.00 95 1018.4
20260506131353 5 195 0.0 0.0 0.00 0.00 0.00 95 1018.2
20260506130348 5 195 0.0 0.0 0.00 0.00 0.00 95 1018.2
20260506125341 5 195 0.0 0.0 0.00 0.00 0.00 95 1018.2
20260506124349 5 195 0.0 0.0 0.00 0.00 0.00 95 1018.2
20260506123342 5 195 0.0 0.0 0.00 0.00 0.00 95 1018.2
20260506122339 5 195 0.0 0.0 0.00 0.00 0.00 95 1018.2
20260506121334 5 195 0.0 0.0 0.00 0.00 0.00 95 1018.2
20260506120350 6 195 0.0 0.0 0.00 0.00 0.00 95 1018.2
20260506115402 6 195 0.0 0.0 0.00 0.00 0.00 95 1018.2
20260506114414 6 195 0.0 0.0 0.00 0.00 0.00 95 1018.2
20260506113346 6 195 0.0 0.0 0.00 0.00 0.00 95 1018.2
20260506112340 6 195 0.0 0.0 0.00 0.00 0.00 95 1018.2
20260506111413 7 195 0.0 0.0 0.00 0.00 0.00 95 1018.1
20260506110404 7 195 0.0 0.0 0.00 0.00 0.00 95 1018.1
20260506105337 7 195 0.0 0.0 0.00 0.00 0.00 94 1018.1
20260506104349 7 195 0.0 0.0 0.00 0.00 0.00 94 1018.0
20260506103345 7 195 0.0 0.0 0.00 0.00 0.00 94 1018.1
20260506102340 7 195 0.0 0.0 0.00 0.00 0.00 95 1018.1
20260506101356 8 195 0.0 0.0 0.00 0.00 0.00 94 1018.1
20260506100350 8 195 0.0 0.0 0.00 0.00 0.00 95 1018.1
20260506095340 8 195 0.0 0.0 0.00 0.00 0.00 95 1018.1
20260506094333 8 195 0.0 0.0 0.00 0.00 0.00 95 1018.2
20260506093347 7 195 0.0 0.0 0.00 0.00 0.00 95 1018.1
20260506092341 7 195 0.0 0.0 0.00 0.00 0.00 94 1018.1
20260506091353 8 195 0.0 0.0 0.00 0.00 0.00 94 1018.2
20260506090346 8 195 0.0 0.0 0.00 0.00 0.00 94 1018.2
20260506085342 8 195 0.0 0.0 0.00 0.00 0.00 94 1018.2
20260506084413 7 195 0.0 0.0 0.00 0.00 0.00 94 1018.2
20260506083403 7 195 0.0 0.0 0.00 0.00 0.00 93 1018.2
20260506082358 8 195 0.0 0.0 0.00 0.00 0.00 93 1018.2
20260506081353 8 195 0.0 0.0 0.00 0.00 0.00 94 1018.2
20260506080347 8 195 0.0 0.0 0.00 0.00 0.00 94 1018.2
20260506073347 9 195 0.0 0.0 0.00 0.00 0.00 92 1018.0
20260506072340 10 195 0.0 0.0 0.00 0.00 0.00 93 1018.0
20260506071334 10 195 0.0 0.0 0.00 0.00 0.00 93 1017.9
20260506070346 10 195 0.0 0.0 0.00 0.00 0.00 93 1017.7
20260506062344 10 195 0.0 0.0 0.00 0.00 0.00 92 1017.5
20260506061335 10 195 0.0 0.0 0.00 0.00 0.00 92 1017.4
20260506060408 10 195 0.0 0.0 0.00 0.00 0.00 91 1017.3
20260506051337 11 195 0.0 0.0 0.00 0.00 0.00 89 1017.1
20260506050350 11 195 0.0 0.0 0.00 0.00 0.00 88 1016.8
20260506044335 11 195 0.0 0.0 0.00 0.00 0.00 87 1016.7
20260506043406 12 195 0.0 0.0 0.00 0.00 0.00 86 1016.6
20260506042339 12 195 0.0 0.0 0.00 0.00 0.00 86 1016.6
20260506041334 12 195 0.0 0.0 0.00 0.00 0.00 86 1016.5
20260506040351 12 195 0.0 0.0 0.00 0.00 0.00 86 1016.1
20260506035345 12 195 0.0 0.0 0.00 0.00 0.00 85 1016.1
20260506034340 12 195 0.0 0.0 0.00 0.00 0.00 85 1016.0
20260506033353 12 195 0.0 0.0 0.00 0.00 0.00 84 1015.6
20260506032347 13 195 0.0 0.0 0.00 0.00 0.00 83 1015.6
20260506031339 13 195 0.0 0.0 0.00 0.00 0.00 82 1015.4
20260506030352 13 195 0.0 0.0 0.00 0.00 0.00 81 1015.2
20260506025345 13 193 0.0 0.0 0.00 0.00 0.00 79 1015.2
20260506024341 13 192 0.0 0.0 0.00 0.00 0.00 78 1015.0
20260506023334 13 192 0.0 0.0 0.00 0.00 0.00 77 1014.9
20260506022405 14 192 0.0 0.0 0.00 0.00 0.00 76 1014.9
20260506021338 14 192 0.0 0.0 0.00 0.00 0.00 76 1014.9
20260506020411 14 192 0.0 0.0 0.00 0.00 0.00 74 1014.6
20260506015344 15 269 0.0 0.0 0.00 0.00 0.00 73 1014.6
20260506014335 15 271 0.0 0.0 0.00 0.00 0.00 72 1014.4
20260506013347 15 275 0.0 0.0 0.00 0.00 0.00 71 1014.4
20260506012341 16 261 0.0 0.0 0.00 0.00 0.00 69 1014.4
20260506011334 16 267 0.0 0.0 0.00 0.00 0.00 69 1014.4
20260506010347 16 269 0.0 0.0 0.00 0.00 0.00 68 1014.4
20260506005341 16 271 0.0 0.0 0.00 0.00 0.00 68 1014.4
20260506004352 17 262 0.0 0.0 0.00 0.00 0.00 67 1014.3
20260506003345 18 277 0.0 0.0 0.00 0.00 0.00 63 1014.3
20260506002338 18 262 0.0 0.0 0.00 0.00 0.00 63 1014.3
20260506001332 18 233 0.0 0.0 0.00 0.00 0.00 64 1014.2
20260506000346 18 194 0.0 0.0 0.00 0.00 0.00 62 1014.0
20260505235339 18 275 0.0 0.0 0.00 0.00 0.00 61 1014.0
20260505234412 18 259 0.0 0.0 0.00 0.00 0.00 61 1014.1
20260505233347 19 294 0.0 0.0 0.00 0.00 0.00 60 1014.1
20260505232341 19 270 0.0 0.0 0.00 0.00 0.00 60 1014.1
20260505231332 18 350 0.0 0.0 0.00 0.00 0.00 59 1014.2
20260505230345 18 279 0.0 0.0 0.00 0.00 0.00 60 1014.3
20260505225341 18 292 0.0 0.0 0.00 0.00 0.00 61 1014.3
20260505224337 17 267 0.0 0.0 0.00 0.00 0.00 60 1014.4
20260505223406 18 219 0.0 0.0 0.00 0.00 0.00 59 1014.4
20260505222342 18 253 0.0 0.0 0.00 0.00 0.00 59 1014.4
20260505221336 18 279 0.0 0.0 0.00 0.00 0.00 59 1014.5
20260505220349 18 269 0.0 0.0 0.00 0.00 0.00 57 1014.8
20260505215342 18 261 0.0 0.0 0.00 0.00 0.00 58 1014.8
20260505214334 18 321 0.0 0.0 0.00 0.00 0.00 61 1015.0
20260505213408 18 271 0.0 0.0 0.00 0.00 0.00 59 1015.1
20260505212341 17 290 0.0 0.0 0.00 0.00 0.00 60 1015.1
20260505211333 18 283 0.0 0.0 0.00 0.00 0.00 59 1015.0
20260505210346 18 284 0.0 0.0 0.00 0.00 0.00 59 1014.9
20260505205340 18 275 0.0 0.0 0.00 0.00 0.00 63 1014.9
20260505204334 18 355 0.0 0.0 0.00 0.00 0.00 62 1014.9
20260505203346 18 223 0.0 0.0 0.00 0.00 0.00 62 1015.1
20260505202340 17 217 0.0 0.0 0.00 0.00 0.00 64 1015.1
20260505201332 17 310 0.0 0.0 0.00 0.00 0.00 64 1015.0
20260505200346 17 316 0.0 0.0 0.00 0.00 0.00 65 1015.0
20260505195340 17 284 0.0 0.0 0.00 0.00 0.00 64 1015.0
20260505194333 18 275 0.0 0.0 0.00 0.00 0.00 62 1015.0
20260505193350 18 289 0.0 0.0 0.00 0.00 0.00 62 1015.0
20260505192343 18 217 0.0 0.0 0.00 0.00 0.00 63 1015.0
20260505191337 17 267 0.0 0.0 0.00 0.00 0.00 63 1015.1
20260505190335 18 329 0.0 0.0 0.00 0.00 0.00 61 1015.1
20260505185346 17 316 0.0 0.0 0.00 0.00 0.00 61 1015.1
20260505184339 17 271 0.0 0.0 0.00 0.00 0.00 64 1015.2
20260505183352 17 250 0.0 0.0 0.00 0.00 0.00 65 1015.2
20260505182344 17 277 0.0 0.0 0.00 0.00 0.00 63 1015.2
20260505181338 16 47 0.0 0.0 0.00 0.00 0.00 65 1015.3
20260505180349 16 278 0.0 0.0 0.00 0.00 0.00 66 1015.2
20260505175405 16 340 0.0 0.0 0.00 0.00 0.00 65 1015.2
20260505174338 16 5 0.0 0.0 0.00 0.00 0.00 65 1015.2
20260505173350 16 13 0.0 0.0 0.00 0.00 0.00 64 1015.0
20260505172344 16 344 0.0 0.0 0.00 0.00 0.00 66 1015.0
20260505171336 15 19 0.0 0.0 0.00 0.00 0.00 68 1015.0
20260505170350 15 295 0.0 0.0 0.00 0.00 0.00 70 1015.2
20260505165406 14 355 0.0 0.0 0.00 0.00 0.00 69 1015.2